When you browse on this site, cookies collect data to enhance your experience and personalize the content and advertising you see.
Visit our Privacy Policy to learn more. By continuing to use the site, you agree to this use of cookies and data.
  • en Suisse
  • Liste des pays
  • À 7 jours
  • Température de l'eau
  • Carte météo
  • Widgets météo
  • user-avatar
    Se connecter

    Météo par heure à Kaboul

    Ce jour, 18 Août, Dimanche

    Heure Température Précipitation Vent Pression Humidité
    00:00 +22°C° 0 mm 1 m/s 608 mmHg 36%
    01:00 +21°C° 0 mm 1 m/s 608 mmHg 37%
    02:00 +21°C° 0 mm 1 m/s 608 mmHg 38%
    03:00 +20°C° 0 mm 1 m/s 607 mmHg 38%
    04:00 +18°C° 0 mm 0 m/s 607 mmHg 39%
    05:00 +17°C° 0 mm 0 m/s 607 mmHg 40%
    06:00 +18°C° 0 mm 0 m/s 607 mmHg 37%
    07:00 +19°C° 0 mm 0 m/s 608 mmHg 34%
    08:00 +22°C° 0 mm 1 m/s 609 mmHg 31%
    09:00 +24°C° 0 mm 1 m/s 609 mmHg 28%
    10:00 +25°C° 0 mm 1 m/s 610 mmHg 24%
    11:00 +26°C° 0 mm 1 m/s 610 mmHg 20%
    12:00 +28°C° 0 mm 2 m/s 610 mmHg 18%
    13:00 +29°C° 0 mm 2 m/s 610 mmHg 15%
    14:00 +30°C° 0 mm 2 m/s 610 mmHg 13%
    15:00 +30°C° 0 mm 3 m/s 610 mmHg 13%
    16:00 +30°C° 0 mm 4 m/s 611 mmHg 13%
    17:00 +30°C° 0 mm 5 m/s 611 mmHg 12%
    18:00 +29°C° 0 mm 4 m/s 610 mmHg 15%
    19:00 +27°C° 0 mm 4 m/s 610 mmHg 18%
    20:00 +25°C° 0 mm 4 m/s 610 mmHg 21%
    21:00 +24°C° 0.1 mm 3 m/s 610 mmHg 23%
    22:00 +23°C° 0.1 mm 2 m/s 610 mmHg 24%
    23:00 +22°C° 0.1 mm 1 m/s 610 mmHg 26%

    Demain, 19 Août, Lundi

    Heure Température Précipitation Vent Pression Humidité
    00:00 +21°C° 0 mm 1 m/s 610 mmHg 26%
    01:00 +21°C° 0 mm 1 m/s 609 mmHg 26%
    02:00 +20°C° 0 mm 1 m/s 609 mmHg 26%
    03:00 +19°C° 0 mm 1 m/s 609 mmHg 27%
    04:00 +17°C° 0 mm 0 m/s 609 mmHg 27%
    05:00 +16°C° 0 mm 0 m/s 608 mmHg 28%
    06:00 +17°C° 0 mm 0 m/s 609 mmHg 25%
    07:00 +19°C° 0 mm 0 m/s 610 mmHg 22%
    08:00 +20°C° 0 mm 0 m/s 611 mmHg 19%
    09:00 +23°C° 0 mm 1 m/s 611 mmHg 17%
    10:00 +25°C° 0 mm 1 m/s 611 mmHg 15%
    11:00 +26°C° 0 mm 1 m/s 612 mmHg 13%
    12:00 +27°C° 0 mm 2 m/s 612 mmHg 12%
    13:00 +28°C° 0 mm 2 m/s 612 mmHg 11%
    14:00 +29°C° 0 mm 2 m/s 612 mmHg 11%
    15:00 +30°C° 0 mm 2 m/s 612 mmHg 10%
    16:00 +30°C° 0 mm 3 m/s 612 mmHg 10%
    17:00 +30°C° 0 mm 3 m/s 611 mmHg 10%
    18:00 +29°C° 0 mm 3 m/s 611 mmHg 12%
    19:00 +27°C° 0 mm 3 m/s 611 mmHg 14%
    20:00 +26°C° 0 mm 3 m/s 611 mmHg 17%
    21:00 +25°C° 0 mm 3 m/s 611 mmHg 17%
    22:00 +24°C° 0 mm 2 m/s 611 mmHg 18%
    23:00 +21°C° 0 mm 2 m/s 611 mmHg 19%

    Après-demain, 20 Août, Mardi

    Heure Température Précipitation Vent Pression Humidité
    00:00 +21°C° 0 mm 2 m/s 610 mmHg 20%
    01:00 +21°C° 0 mm 1 m/s 610 mmHg 21%
    02:00 +20°C° 0 mm 1 m/s 609 mmHg 21%
    03:00 +19°C° 0 mm 1 m/s 609 mmHg 22%
    04:00 +18°C° 0 mm 1 m/s 609 mmHg 22%
    05:00 +18°C° 0 mm 1 m/s 608 mmHg 23%
    06:00 +19°C° 0 mm 1 m/s 609 mmHg 20%
    07:00 +20°C° 0 mm 1 m/s 610 mmHg 17%
    08:00 +20°C° 0 mm 0 m/s 611 mmHg 15%
    09:00 +23°C° 0 mm 1 m/s 611 mmHg 13%
    10:00 +25°C° 0 mm 1 m/s 612 mmHg 12%
    11:00 +27°C° 0 mm 1 m/s 612 mmHg 10%
    12:00 +28°C° 0 mm 1 m/s 612 mmHg 9%
    13:00 +29°C° 0 mm 1 m/s 612 mmHg 8%
    14:00 +30°C° 0 mm 2 m/s 612 mmHg 7%
    15:00 +30°C° 0 mm 2 m/s 612 mmHg 6%
    16:00 +31°C° 0 mm 2 m/s 612 mmHg 6%
    17:00 +31°C° 0 mm 3 m/s 611 mmHg 6%
    18:00 +29°C° 0 mm 3 m/s 611 mmHg 9%
    19:00 +28°C° 0 mm 3 m/s 611 mmHg 12%
    20:00 +26°C° 0 mm 3 m/s 611 mmHg 14%
    21:00 +25°C° 0 mm 2 m/s 610 mmHg 16%
    22:00 +24°C° 0 mm 2 m/s 610 mmHg 17%
    23:00 +23°C° 0 mm 2 m/s 610 mmHg 18%

    21 Août, Mercredi

    Heure Température Précipitation Vent Pression Humidité
    00:00 +22°C° 0 mm 1 m/s 609 mmHg 19%
    01:00 +21°C° 0 mm 1 m/s 609 mmHg 21%
    02:00 +20°C° 0 mm 1 m/s 608 mmHg 22%
    03:00 +20°C° 0 mm 1 m/s 608 mmHg 22%
    04:00 +19°C° 0 mm 1 m/s 608 mmHg 23%
    05:00 +18°C° 0 mm 1 m/s 608 mmHg 23%
    06:00 +20°C° 0 mm 1 m/s 608 mmHg 21%
    07:00 +21°C° 0 mm 1 m/s 609 mmHg 18%
    08:00 +22°C° 0 mm 1 m/s 609 mmHg 16%
    09:00 +24°C° 0 mm 1 m/s 610 mmHg 14%
    10:00 +26°C° 0 mm 1 m/s 610 mmHg 13%
    11:00 +27°C° 0 mm 1 m/s 611 mmHg 11%
    12:00 +28°C° 0 mm 1 m/s 611 mmHg 10%
    13:00 +29°C° 0 mm 1 m/s 611 mmHg 9%
    14:00 +31°C° 0 mm 2 m/s 611 mmHg 7%
    15:00 +31°C° 0 mm 2 m/s 611 mmHg 7%
    16:00 +31°C° 0 mm 2 m/s 611 mmHg 7%
    17:00 +31°C° 0 mm 2 m/s 611 mmHg 7%
    18:00 +30°C° 0 mm 2 m/s 610 mmHg 9%
    19:00 +28°C° 0 mm 2 m/s 610 mmHg 12%
    20:00 +27°C° 0 mm 2 m/s 610 mmHg 14%
    21:00 +26°C° 0 mm 2 m/s 610 mmHg 16%
    22:00 +25°C° 0 mm 2 m/s 610 mmHg 17%
    23:00 +23°C° 0 mm 2 m/s 609 mmHg 19%

    22 Août, Jeudi

    Heure Température Précipitation Vent Pression Humidité
    00:00 +23°C° 0 mm 1 m/s 609 mmHg 20%
    01:00 +22°C° 0 mm 1 m/s 609 mmHg 21%
    02:00 +21°C° 0 mm 1 m/s 608 mmHg 22%
    03:00 +20°C° 0 mm 1 m/s 608 mmHg 23%
    04:00 +20°C° 0 mm 1 m/s 608 mmHg 24%
    05:00 +17°C° 0 mm 0 m/s 607 mmHg 24%
    06:00 +19°C° 0 mm 0 m/s 608 mmHg 21%
    07:00 +20°C° 0 mm 0 m/s 609 mmHg 19%
    08:00 +22°C° 0 mm 0 m/s 610 mmHg 16%
    09:00 +25°C° 0 mm 1 m/s 610 mmHg 15%
    10:00 +27°C° 0 mm 1 m/s 610 mmHg 13%
    11:00 +28°C° 0 mm 1 m/s 611 mmHg 12%
    12:00 +29°C° 0 mm 1 m/s 611 mmHg 10%
    13:00 +31°C° 0 mm 2 m/s 611 mmHg 9%
    14:00 +32°C° 0 mm 2 m/s 611 mmHg 8%
    15:00 +32°C° 0 mm 2 m/s 611 mmHg 8%
    16:00 +33°C° 0 mm 3 m/s 611 mmHg 8%
    17:00 +33°C° 0 mm 3 m/s 610 mmHg 8%
    18:00 +31°C° 0 mm 3 m/s 610 mmHg 11%
    19:00 +29°C° 0 mm 3 m/s 610 mmHg 13%
    20:00 +27°C° 0 mm 3 m/s 610 mmHg 16%
    21:00 +26°C° 0 mm 3 m/s 610 mmHg 18%
    22:00 +25°C° 0 mm 2 m/s 609 mmHg 19%
    23:00 +24°C° 0 mm 2 m/s 609 mmHg 20%

    23 Août, Vendredi

    Heure Température Précipitation Vent Pression Humidité
    00:00 +23°C° 0 mm 1 m/s 609 mmHg 21%
    01:00 +22°C° 0 mm 1 m/s 608 mmHg 22%
    02:00 +22°C° 0 mm 1 m/s 608 mmHg 22%
    03:00 +21°C° 0 mm 1 m/s 608 mmHg 23%
    04:00 +20°C° 0 mm 1 m/s 608 mmHg 23%
    05:00 +20°C° 0 mm 1 m/s 608 mmHg 24%
    06:00 +21°C° 0 mm 1 m/s 608 mmHg 21%
    07:00 +23°C° 0 mm 1 m/s 609 mmHg 19%
    08:00 +24°C° 0 mm 1 m/s 610 mmHg 16%
    09:00 +26°C° 0 mm 1 m/s 610 mmHg 15%
    10:00 +27°C° 0 mm 1 m/s 611 mmHg 13%
    11:00 +29°C° 0 mm 1 m/s 611 mmHg 12%
    12:00 +30°C° 0 mm 2 m/s 611 mmHg 11%
    13:00 +31°C° 0 mm 2 m/s 611 mmHg 10%
    14:00 +32°C° 0 mm 2 m/s 611 mmHg 9%
    15:00 +33°C° 0 mm 3 m/s 611 mmHg 9%
    16:00 +34°C° 0 mm 4 m/s 611 mmHg 9%
    17:00 +34°C° 0 mm 5 m/s 611 mmHg 9%
    18:00 +32°C° 0 mm 5 m/s 610 mmHg 11%
    19:00 +29°C° 0 mm 4 m/s 610 mmHg 13%
    20:00 +27°C° 0 mm 3 m/s 610 mmHg 16%
    21:00 +26°C° 0 mm 2 m/s 610 mmHg 18%
    22:00 +25°C° 0 mm 2 m/s 610 mmHg 20%
    23:00 +24°C° 0 mm 1 m/s 610 mmHg 23%
    Voir plus